Regional Weather Roundup
Issued by NWS

Home | Current Version | Previous Version | Text Only | Print | Product List | Glossary Off
Versions: 1 2 3 4 5 6 7 8 9 10 11 12 13 14 15 16 17 18 19 20 21 22 23 24 25 26 27 28 29 30 31 32 33 34 35 36 37 38 39 40 41 42 43 44 45 46 47 48 49 50

000
ASUS43 KMPX 010210
RWRMN
WEATHER ROUNDUP FOR MINNESOTA
NATIONAL WEATHER SERVICE TWIN CITIES/CHANHASSEN MN
900 PM CDT FRI JUL 31 2015


NOTE: "FAIR" INDICATES FEW OR NO CLOUDS BELOW 12,000 FEET WITH NO
SIGNIFICANT WEATHER AND/OR OBSTRUCTIONS TO VISIBILITY. N/A MEANS
CURRENT SKY AND/OR WEATHER CONDITIONS ARE NOT AVAILABLE.

MNZ060>063-068>070-010300-
   Twin Cities Metro

CITY           SKY/WX    TMP DP  RH WIND       PRES   REMARKS
TWIN CITIES    PTCLDY    76  55  48 W9        29.98S
ST PAUL        PTCLDY    76  54  46 W10       29.98R
CRYSTAL        CLEAR     75  56  51 W8        29.97S
BLAINE         PTCLDY    75  55  50 W6        29.97S
LAKEVILLE      CLEAR     70  57  64 W3        30.00S
EDEN PRAIRIE   CLEAR     73  56  54 W6        29.99R
SOUTH ST PAUL  CLEAR     76  53  44 W7        29.97S
LAKE ELMO      FAIR      72  55  56 W3        29.99S
$$
MNZ001>005-007-008-013>017-022>024-027-028-010300-
   Northwest Minnesota

CITY           SKY/WX    TMP DP  RH WIND       PRES   REMARKS
BEMIDJI        CLEAR     65  50  58 NW6       29.97S
HALLOCK        CLEAR     70  55  60 W3        29.95S
ROSEAU         CLEAR     66  55  68 W5        29.95S
WARROAD        CLEAR     66  54  63 W5        29.94S
THIEF RVR FALL PTCLDY    70  52  52 NW3       29.97S
CROOKSTON      CLEAR     70  57  64 NW6       29.97S
FOSSTON        CLEAR     66  52  59 CALM      29.98S
DETROIT LAKES  CLEAR     72  55  56 CALM      30.00S
MOORHEAD       CLEAR     72  61  68 N3        29.98S
PARK RAPIDS    CLEAR     70  52  52 NW3       29.98S
MAHNOMEN       FAIR      65  55  70 NW3       29.98S
$$
MNZ006-009>011-018-025>026-010300-
   North Central Minnesota

CITY           SKY/WX    TMP DP  RH WIND       PRES   REMARKS
BAUDETTE       CLEAR     67  50  54 W10       29.92F
FLAG ISLAND    CLEAR     72  52  49 NW18      29.90S
INTL FALLS     CLEAR     66  52  60 W8        29.90S
WASKISH        CLEAR     70  54  56 W9        29.94F
BIG FORK       CLEAR     66  48  52 W3        29.94S
LONGVILLE      CLEAR     63  55  77 CALM      29.97S
GRAND RAPIDS   CLEAR     70  45  40 NW9       29.95S
CRANE LAKE     PTCLDY    59  57  94 CALM      29.91S
ORR            CLEAR     64  50  59 CALM      29.89S
COOK           CLEAR     64  52  63 W3        29.92S
WALKER         FAIR      66  52  61 CALM      29.97S
$$
MNZ012-019>021-037-010300-
   Northeast Minnesota

CITY           SKY/WX    TMP DP  RH WIND       PRES   REMARKS
DULUTH         PTCLDY    67  49  52 W7        29.93R
ELY            PTCLDY    63  55  77 CALM      29.91S
HIBBING        CLEAR     68  47  46 W8        29.93R
EVELETH        CLEAR     68  46  45 W7        29.93S
DULUTH HARBOR  CLEAR     73  55  53 W9        29.91S
TWO HARBORS    CLEAR     66  55  68 W3        29.89S
SILVER BAY     PTCLDY    63  57  82 CALM      29.88S
GRAND MARAIS     N/A     56  49  77 SW6       29.85R
G MARAIS ARPRT   N/A     61  52  72 W5        29.89F
$$
MNZ029>031-032-039>041-046>048-054>057-064-010300-
   West Central Minnesota

CITY           SKY/WX    TMP DP  RH WIND       PRES   REMARKS
FERGUS FALLS   CLEAR     73  57  56 CALM      29.97S
WHEATON        CLEAR     70  63  78 S3        29.99F
MORRIS         CLEAR     72  64  78 SW6       29.99S
ALEXANDRIA     CLEAR     71  58  63 W5        30.01F
ELBOW LAKE     FAIR      73  66  80 CALM      29.99S
WADENA         CLEAR     70  54  56 W3        29.98F
GLENWOOD       CLEAR     72  61  68 SW3       30.01S
APPLETON       CLEAR     75  61  60 S3        29.99S
BENSON         CLEAR     72  63  73 CALM      30.00S
ORTONVILLE     CLEAR     73  63  68 S3        29.99F
MADISON        CLEAR     72  64  78 SE5       30.00F
WILLMAR        FAIR      73  63  68 SW5       30.02S
$$
MNZ033>034-036-042>043-049>051-058-059-010300-
   Central Minnesota

CITY           SKY/WX    TMP DP  RH WIND       PRES   REMARKS
ST CLOUD       CLEAR     70  56  61 W3        29.98S
SAUK CENTRE    FAIR      70  60  70 CALM      30.00S
PAYNESVILLE    CLEAR     65  59  80 CALM      30.01S
AITKIN         CLEAR     68  52  56 CALM      29.95S
PINE RIVER     CLEAR     72  52  49 CALM      30.00S
BRAINERD       CLEAR     72  50  45 W6        29.97F
STAPLES        CLEAR     66  55  68 W3        29.98S
LONG PRAIRIE   FAIR      70  55  60 CALM      30.00S
LITTLE FALLS   CLEAR     70  54  56 CALM      29.98F
LITCHFIELD     CLEAR     72  59  64 SW3       30.01S
BUFFALO        CLEAR     73  57  57 CALM      30.00S
MAPLE LAKE     CLEAR     73  59  60 SW3       30.00S
$$
MNZ037-044-045-052-053-010300-
   East Central Minnesota

CITY           SKY/WX    TMP DP  RH WIND       PRES   REMARKS
PRINCETON      CLEAR     72  57  60 W3        29.98S
MORA           CLEAR     70  50  49 W3        29.98S
CAMBRIDGE      PTCLDY    72  57  60 CALM      29.96S
RUSH CITY      CLEAR     67  52  58 W3        29.96S
MOOSE LAKE     CLEAR     63  54  72 CALM      29.93S
HINCKLEY       FAIR      64  57  77 CALM      29.95S
CLOQUET        CLEAR     66  46  48 W5        29.94S
MCGREGOR       CLEAR     70  50  49 W3        29.96S
$$
MNZ071>073-080-081-089-090-097-098-010300-
   Southwest Minnesota

CITY           SKY/WX    TMP DP  RH WIND       PRES   REMARKS
MONTEVIDEO     CLEAR     72  57  60 CALM      30.02F
GRANITE FALLS  CLEAR     71  64  77 SE5       30.03S
CANBY          PTCLDY    75  61  62 SW3       30.02S
MARSHALL       PTCLDY    75  61  60 S6        30.04S
REDWOOD FALLS  CLEAR     74  59  59 S3        30.01F
OLIVIA         CLEAR     70  59  68 CALM      30.01S
PIPESTONE      CLEAR     70  64  83 SW3       30.07S
WINDOM         CLEAR     73  61  64 CALM      30.05S
WORTHINGTON    CLEAR     73  57  56 SW6       30.07S
JACKSON        CLEAR     73  59  60 CALM      30.07R
TRACY          CLEAR     73  63  68 CALM      30.04S
SLAYTON        CLEAR     72  62  71 CALM      30.07R
$$
MNZ065>067-074>077-082>085-091>093-010300-
   South Central Minnesota

CITY           SKY/WX    TMP DP  RH WIND       PRES   REMARKS
MANKATO        CLEAR     72  55  56 W3        30.02S
NEW ULM        CLEAR     72  61  68 CALM      30.02F
ST JAMES       CLEAR     72  61  68 CALM      30.04S
FAIRMONT       CLEAR     72  55  56 CALM      30.04S
GLENCOE        CLEAR     73  62  69 CALM      30.00F
FARIBAULT      CLEAR     70  59  68 W5        30.02S
OWATONNA       CLEAR     66  59  77 SW5       30.03R
WASECA         CLEAR     64  59  82 CALM      30.04S
ALBERT LEA     CLEAR     72  61  68 CALM      30.04S
$$
MNZ078>079-086>088-094>096-010300-
   Southeast Minnesota

CITY           SKY/WX    TMP DP  RH WIND       PRES   REMARKS
ROCHESTER      CLEAR     65  58  78 W9        30.03R
RED WING       PTCLDY    70  57  64 CALM      29.97S
STANTON        CLEAR     70  57  64 CALM      29.99S
DODGE CENTER   PTCLDY    64  59  82 W6        30.03S
WINONA         CLEAR     70  57  64 CALM      29.98S
AUSTIN         CLEAR     73  57  56 W3        30.03S
PRESTON        CLEAR     67  56  67 W7        30.03S
$$
ABBREVIATIONS USED IN REMARKS
   TC - TEMPERATURES IN CELSIUS
  WCI - WIND CHILL INDEX
   HX - HEAT INDEX
  VSB - VISIBILITY
$$


USA.gov is the U.S. government's official web portal to all federal, state and local government web resources and services.